Home > Weather > Key West > Past weeks

Flag for USA Past Weather in Key West, Florida, USA — Yesterday and Last 2 Weeks

Now
84 °F

Passing clouds.


Feels Like: 94 °F
Forecast: 82 / 88 °F
Wind: 14 mph from East

Location: Key West International Airport

Current Time: Jun 25, 2016 at 1:16:41 AM

Latest Report: Jun 24, 2016 at 11:53 PM


Visibility: 10 mi

Pressure: 30.07 "Hg

Humidity: 80%

Dew Point: 77 °F

Location of Key WestLocation

Past Weather in Key West — Graph

°F

Key West Temperature Yesterday

Maximum temperature yesterday: 90 °F (at 2:53 PM)
Minimum temperature yesterday: 83 °F (at 2:53 AM)
Average temperature yesterday: 85 °F

High & Low Weather Summary for the Past Weeks

 TemperatureHumidityPressure
High91 °F (Jun 22, 12:53 PM)100% (Jun 9, 11:53 PM)30.14 "Hg (Jun 9, 11:53 PM)
Low77 °F (Jun 20, 3:53 AM)50% (Jun 20, 3:53 PM)29.94 "Hg (Jun 13, 6:53 PM)
Average84 °F79%30.05 "Hg
* Reported Jun 9 11:53 PM — Jun 24 11:53 PM, Key West, Weather by CustomWeather, © 2016

Note: Actual official high and low records may vary slightly from our data, if they occured in-between our weather recording intervals... More about our weather records

Advertising

Key West Weather History for the Previous 24 Hours

Scroll right to see more
 ConditionsComfort  
Time TempWeatherWind HumidityBarometerVisibility
11:53 PM
Fri, Jun 24
84 °FPassing clouds.14 mph80%30.07 "Hg10 mi
10:53 PM84 °FPassing clouds.12 mph80%30.07 "Hg10 mi
9:53 PM84 °FPassing clouds.12 mph80%30.06 "Hg10 mi
8:53 PM84 °FPassing clouds.12 mph80%30.05 "Hg10 mi
7:53 PM84 °FSunny.6 mph77%30.04 "Hg10 mi
6:53 PM86 °FScattered clouds.8 mph75%30.04 "Hg10 mi
5:53 PM86 °FScattered clouds.7 mph75%30.04 "Hg10 mi
4:53 PM86 °FMostly cloudy.8 mph75%30.05 "Hg10 mi
3:53 PM87 °FScattered clouds.7 mph69%30.06 "Hg10 mi
2:53 PM90 °FSunny.10 mph63%30.06 "Hg10 mi
1:53 PM89 °FScattered clouds.8 mph70%30.08 "Hg10 mi
12:53 PM89 °FSunny.10 mph68%30.10 "Hg10 mi
11:53 AM88 °FSunny.7 mph70%30.11 "Hg10 mi
10:53 AM88 °FSunny.7 mph70%30.11 "Hg10 mi
9:53 AM85 °FSunny.7 mph77%30.10 "Hg10 mi
8:53 AM84 °FBroken clouds.14 mph80%30.09 "Hg10 mi
7:53 AM84 °FPassing clouds.6 mph80%30.08 "Hg10 mi
6:53 AM83 °FPassing clouds.6 mph79%30.07 "Hg10 mi
5:53 AM83 °FPassing clouds.5 mph85%30.05 "Hg10 mi
4:53 AM83 °FPassing clouds.6 mph82%30.04 "Hg10 mi
3:53 AM83 °FPassing clouds.5 mph82%30.04 "Hg10 mi
2:53 AM83 °FPassing clouds.8 mph82%30.05 "Hg10 mi
1:53 AM84 °FClear.8 mph80%30.06 "Hg10 mi
Weather by CustomWeather, © 2016

See weather overviewHow to use our weather pages